Find Raduga

NORAD ID: 22836 Int'l Des: 1993-062 Owner: VKS Country: RU operational
HEOCIRCULARGSO

リアルタイム位置

3D地球を読み込み中...

Radugaについて

説明を読み込み中...

次回通過

Passes for default location (London). Set your location on the main map for personalized predictions.

高度履歴

Loading altitude history...

軌道要素

1 22836U 93062A 26106.88981272 -.00000164 00000-0 00000+0 0 9992
2 22836 14.0440 347.6027 0005525 327.9245 290.9565 1.00272522 45381
Epoch: Apr 16, 2026 • Age: 20 hours

現在のステータス

高度 35799.5 km
速度 3.07 km/s
衛星直下点 -5.97°S, 80.41°E
打ち上げ日 Sep 30, 1993
運用期間 32.5 years
タイプ other

技術仕様

分類 Payload
質量 1965.00 kg
乾燥質量 1800.00 kg
総質量 1965.00 kg
長さ 5.50 m
直径 2.50 m
スパン 9.50 m
形状 Step Cyl + 2 Pan
製造者 NPOPM
バスタイプ Raduga
フェーズステータス In Orbit
所有者/国 VKS/RU

Most Searched